Regional Weather Roundup
Issued by NWS

Home | Current Version | Previous Version | Text Only | Print | Product List | Glossary On
Versions: 1 2 3 4 5 6 7 8 9 10 11 12 13 14 15 16 17 18 19 20 21 22 23 24 25 26 27 28 29 30 31 32 33 34 35 36 37 38 39 40 41 42 43 44 45 46 47 48 49 50
000
ASUS43 KMPX 192010
RWRMN
WEATHER ROUNDUP FOR MINNESOTA
NATIONAL WEATHER SERVICE TWIN CITIES/CHANHASSEN MN
300 PM CDT TUE SEP 19 2017


NOTE: "FAIR" INDICATES FEW OR NO CLOUDS BELOW 12,000 FEET WITH NO
SIGNIFICANT WEATHER AND/OR OBSTRUCTIONS TO VISIBILITY. N/A MEANS
CURRENT SKY AND/OR WEATHER CONDITIONS ARE NOT AVAILABLE.

MNZ060>063-068>070-192100-
   Twin Cities Metro

CITY           SKY/WX    TMP DP  RH WIND       PRES   REMARKS
TWIN CITIES    PTSUNNY   78  63  59 SE14      29.79F
ST PAUL        MOSUNNY   79  64  60 SE20G28   29.80F
CRYSTAL        CLOUDY    78  61  55 SE15G22   29.77F
BLAINE         PTSUNNY   79  64  61 SE14G23   29.79F
LAKEVILLE      PTSUNNY   79  63  57 SE15G22   29.79F
EDEN PRAIRIE   CLOUDY    78  63  59 SE15G23   29.77F
SOUTH ST PAUL  MOSUNNY   78  60  54 SE13G22   29.80F
LAKE ELMO      FAIR      77  64  65 SE15G21   29.82F
$$
MNZ001>005-007-008-013>017-022>024-027-028-192100-
   Northwest Minnesota

CITY           SKY/WX    TMP DP  RH WIND       PRES   REMARKS
BEMIDJI        CLOUDY    68  61  77 SE18G28   29.73F
HALLOCK        CLOUDY    73  61  64 SE16G23   29.60S
ROSEAU         MOSUNNY   72  63  73 SE17G25   29.68F
WARROAD        CLOUDY    68  63  83 SE13G18   29.70F
THIEF RVR FALL PTSUNNY   74  60  61 SE20G28   29.64F
CROOKSTON      CLOUDY    75  61  60 S23G29    29.59F
FOSSTON        CLOUDY    75  59  57 SE17G25   29.65F
DETROIT LAKES  CLOUDY    72  61  68 SE20G28   29.66F
MOORHEAD       CLOUDY    75  63  64 SE22G37   29.59F
PARK RAPIDS    CLOUDY    72  62  71 SE18      29.72F
MAHNOMEN       FAIR      72  61  68 SE20G28   29.64F
$$
MNZ006-009>011-018-025>026-192100-
   North Central Minnesota

CITY           SKY/WX    TMP DP  RH WIND       PRES   REMARKS
BAUDETTE       PTSUNNY   70  60  70 SE17G24   29.73F
FLAG ISLAND    MOSUNNY   64  57  77 SE9       29.72F
INTL FALLS     MOSUNNY   71  58  63 SE10G21   29.80F
WASKISH        PTSUNNY   70  61  73 SE17      29.74F
BIG FORK       CLOUDY    70  61  73 SE8       29.80F
LONGVILLE      CLOUDY    70  61  73 SE13G22   29.77F
GRAND RAPIDS   CLOUDY    69  61  75 SE13      29.81F
CRANE LAKE     CLOUDY    70  59  68 S8        29.85F
ORR            PTSUNNY   70  57  64 SE8       29.80F
COOK           CLOUDY    70  61  73 SE7       29.84F
WALKER         CLOUDY    66  60  82 SE8       29.75F
$$
MNZ012-019>021-037-192100-
   Northeast Minnesota

CITY           SKY/WX    TMP DP  RH WIND       PRES   REMARKS
DULUTH         MOSUNNY   68  60  75 E13       29.87F
ELY            MOSUNNY   70  57  64 SE14      29.86F
HIBBING        CLOUDY    68  59  73 SE13G22   29.84S
EVELETH        PTSUNNY   68  61  77 SE10G17   29.87S
DULUTH HARBOR  MOSUNNY   64  59  82 NE21      29.87F
TWO HARBORS    SUNNY     70  61  73 E10G16    29.86F
GRAND MARAIS     N/A     61  56  83 E14G22    29.94F
G MARAIS ARPRT MOSUNNY   63  48  59 E7        29.96F
$$
MNZ029>031-032-039>041-046>048-054>057-064-192100-
   West Central Minnesota

CITY           SKY/WX    TMP DP  RH WIND       PRES   REMARKS
FERGUS FALLS   CLOUDY    72  63  73 SE17G29   29.63F
WHEATON        CLOUDY    73  63  68 SE28G35   29.60F
MORRIS         MOSUNNY   73  64  73 SE20G32   29.63F
ALEXANDRIA     CLOUDY    72  63  73 SE18G30   29.71F
ELBOW LAKE     CLOUDY    70  65  82 SE26G33   29.65F HAZE
WADENA         CLOUDY    72  61  68 SE21G26   29.71F
GLENWOOD       CLOUDY    72  64  78 SE18G28   29.71F
APPLETON       CLOUDY    75  64  69 SE22G28   29.63F
BENSON         CLOUDY    73  64  73 S15G29    29.68F
ORTONVILLE     CLOUDY    73  64  73 NE20G30   29.60F
MADISON        CLOUDY    77  66  69 SE25G36   29.63F
WILLMAR        CLOUDY    75  66  73 SE21G26   29.72F
$$
MNZ033>034-036-042>043-049>051-058-059-192100-
   Central Minnesota

CITY           SKY/WX    TMP DP  RH WIND       PRES   REMARKS
ST CLOUD       CLOUDY    77  64  64 SE20G29   29.76F
PAYNESVILLE    CLOUDY    74  64  72 SE14G21   29.74F
AITKIN         CLOUDY    72  61  68 SE12G17   29.78F
PINE RIVER     CLOUDY    66  61  82 SE13      29.80F
BRAINERD       CLOUDY    72  61  68 SE14G20   29.77F
STAPLES        CLOUDY    72  61  68 SE14G21   29.73F
LONG PRAIRIE   CLOUDY    72  63  73 E17G25    29.74F
LITTLE FALLS   CLOUDY    73  55  53 SE18G24   29.75F
LITCHFIELD     MOSUNNY   75  64  69 SE15G22   29.75F
BUFFALO        CLOUDY    76  61  60 SE13G22   29.78F
MAPLE LAKE     PTSUNNY   76  65  70 SE9G17    29.77F
HUTCHINSON     CLOUDY    77  66  69 SE14G22   29.76F
$$
MNZ037-044-045-052-053-192100-
   East Central Minnesota

CITY           SKY/WX    TMP DP  RH WIND       PRES   REMARKS
PRINCETON      PTSUNNY   75  64  69 SE12G20   29.78F
MORA           PTSUNNY   73  59  60 SE12      29.82F
CAMBRIDGE      PTSUNNY   79  63  57 SE13G22   29.80F
RUSH CITY      MOSUNNY   75  62  62 S14G20    29.81F
MOOSE LAKE     CLOUDY    72  59  64 S5        29.81F
HINCKLEY       CLOUDY    73  63  68 SE8       29.82F
CLOQUET        SUNNY     70  57  64 E8        29.85S
MCGREGOR       CLOUDY    72  61  68 SE12      29.81F
$$
MNZ071>073-080-081-089-090-097-098-192100-
   Southwest Minnesota

CITY           SKY/WX    TMP DP  RH WIND       PRES   REMARKS
MONTEVIDEO     CLOUDY    75  64  69 S16G25    29.66F
GRANITE FALLS  CLOUDY    76  66  71 SE20G31   29.69F
CANBY          CLOUDY    75  67  75 SE20G25   29.63F
MARSHALL       CLOUDY    75  67  76 SE22G29   29.65F
REDWOOD FALLS  CLOUDY    76  64  66 SE23G31   29.70F
OLIVIA         CLOUDY    73  64  73 SE17G23   29.72F
PIPESTONE      MOSUNNY   79  68  69 SE14G25   29.63F
WORTHINGTON    CLOUDY    75  67  76 SE21G31   29.69F
JACKSON        MOSUNNY   73  64  73 SE18G28   29.73F
TRACY          CLOUDY    76  69  77 SE20G28   29.68F
SLAYTON        CLOUDY    75  58  54 SE16G28   29.70F
$$
MNZ065>067-074>077-082>085-091>093-192100-
   South Central Minnesota

CITY           SKY/WX    TMP DP  RH WIND       PRES   REMARKS
MANKATO        SUNNY     79  65  62 SE20G26   29.75F
NEW ULM        MOSUNNY   79  66  65 SE18G26   29.73F
ST JAMES       MOSUNNY   79  66  65 SE21G28   29.74F
FAIRMONT       CLOUDY    77  67  71 SE20G32   29.75F
GLENCOE        CLOUDY    78  68  69 SE18      29.75F
FARIBAULT      PTSUNNY   79  63  57 SE18G25   29.80F
OWATONNA       SUNNY     81  64  57 SE16G25   29.80F
WASECA         MOSUNNY   77  61  57 SE17G25   29.79F
ALBERT LEA     CLOUDY    81  64  57 SE14G22   29.80F
$$
MNZ078>079-086>088-094>096-192100-
   Southeast Minnesota

CITY           SKY/WX    TMP DP  RH WIND       PRES   REMARKS
ROCHESTER      SUNNY     77  62  59 SE18G24   29.85F
RED WING       MOSUNNY   79  63  57 SE13      29.81F
STANTON        SUNNY     79  62  56 SE15G22   29.79F
DODGE CENTER   SUNNY     77  61  57 SE16G24   29.84F
WINONA         MOSUNNY   79  61  53 SE13G20   29.86F
AUSTIN         PTSUNNY   77  61  57 SE14G21   29.83F
PRESTON        SUNNY     76  61  60 S14G22    29.87F
$$
ABBREVIATIONS USED IN REMARKS
   TC - TEMPERATURES IN CELSIUS
  WCI - WIND CHILL INDEX
   HX - HEAT INDEX
  VSB - VISIBILITY
$$




USA.gov is the U.S. government's official web portal to all federal, state and local government web resources and services.